Regional Weather Roundup
Issued by NWS Northern Indiana

Home | Current Version | Previous Version | Graphics & Text | Print | Product List | Glossary On
Versions: 1 2 3 4 5 6 7 8 9 10 11 12 13 14 15 16 17 18 19 20 21 22 23 24 25 26 27 28 29 30 31 32 33 34 35 36 37 38 39 40 41 42 43 44 45 46 47 48 49 50
000
ASUS43 KIWX 281200
RWRIWX

KIWX WEATHER ROUNDUP
NATIONAL WEATHER SERVICE NORTHERN INDIANA
800 AM EDT MON JUL 28 2014

NOTE: "FAIR" INDICATES FEW OR NO CLOUDS BELOW 12,000 FEET WITH NO
SIGNIFICANT WEATHER AND/OR OBSTRUCTIONS TO VISIBILITY.

* THESE STATIONS ARE NOT UNDER NWS QUALITY CONTROL. THEY ALSO MAY NOT
  REPORT WEATHER SUCH AS PRECIPITATION OR FOG.

INZ001>027-281300-
NORTHERN INDIANA

CITY           SKY/WX    TMP DP  RH WIND       PRES   REMARKS
GARY*          PTSUNNY   63  54  72 N17       30.00R
VALPARAISO     CLOUDY    60  54  80 N10       29.99R
6HR MIN TEMP:  60; 6HR MAX TEMP:  63;

KNOX*          CLOUDY    60  54  79 N13       29.96R
6HR MIN TEMP:  44; 6HR MAX TEMP:  86;

SOUTH BEND     CLOUDY    61  54  77 N14       29.96R
6HR MIN TEMP:  60; 6HR MAX TEMP:  64;

GOSHEN         CLOUDY    62  57  83 NW13      29.92R
6HR MIN TEMP:  62; 6HR MAX TEMP:  65;

MONTICELLO*    CLOUDY    61  56  84 N10G18    29.96R
6HR MIN TEMP:  59; 6HR MAX TEMP:  64;

WARSAW*        CLOUDY    61  57  88 NW13      29.93R
ANGOLA*        CLOUDY    63  54  72 N8        29.89R
FORT WAYNE     PTSUNNY   64  59  83 NW9       29.90R
6HR MIN TEMP:  62; 6HR MAX TEMP:  64;

PERU/GRISSOM   CLOUDY    62  62  97 NW13      29.94R
6HR MIN TEMP:  62; 6HR MAX TEMP:  65;


$$
INZ028>050-281300-
CENTRAL INDIANA

CITY           SKY/WX    TMP DP  RH WIND       PRES   REMARKS
LAFAYETTE      SUNNY     61  54  77 NW9       29.96R
6HR MIN TEMP:  58; 6HR MAX TEMP:  65;

KOKOMO*        CLOUDY    63  57  82 NW10      29.94R
6HR MIN TEMP:  63; 6HR MAX TEMP:  64;

MUNCIE*        CLOUDY    62  58  86 NW10      29.91S
6HR MIN TEMP:  61; 6HR MAX TEMP:  64;

INDIANAPOLIS   CLOUDY    63  55  75 NW13      29.94R
6HR MIN TEMP:  63; 6HR MAX TEMP:  66;


$$
MIZ043>046-050>051-056>058-064>065-071>073-077>080-281300-
SOUTHWEST LOWER MICHIGAN

CITY           SKY/WX    TMP DP  RH WIND       PRES   REMARKS
BATTLE CREEK   PTSUNNY   60  56  86 N9        29.92R
6HR MIN TEMP:  60; 6HR MAX TEMP:  63;

BENTON HARBOR  CLOUDY    58  54  86 MISG      29.96R
6HR MIN TEMP:  58; 6HR MAX TEMP:  62;

COLDWATER*     CLOUDY    64  58  82 NW10      29.90R
6HR MIN TEMP:  63; 6HR MAX TEMP:  64;

HILLSDALE*     CLOUDY    62  60  91 NW10      29.88R
6HR MIN TEMP:  62; 6HR MAX TEMP:  63;

HOLLAND        PTSUNNY   58  54  86 NW5       29.96R
6HR MIN TEMP:  57; 6HR MAX TEMP:  64;

GRAND RAPIDS   PTSUNNY   58  55  90 N10       29.93R
6HR MIN TEMP:  58; 6HR MAX TEMP:  65; 6HR PCP: TRACE;

KALAMAZOO      CLOUDY    60  55  83 N10       29.93R
6HR MIN TEMP:  59; 6HR MAX TEMP:  64;

STURGIS*       CLOUDY    61  57  88 NW9       29.91R
THREE RIVERS*  CLOUDY    61  58  89 NW8       29.93R

$$
OHZ001>008-015>018-024>025-281300-
NORTHWEST OHIO

CITY           SKY/WX    TMP DP  RH WIND       PRES   REMARKS
DEFIANCE       CLOUDY    65  58  78 N12G21    29.87R
6HR MIN TEMP:  61; 6HR MAX TEMP:  65;

FINDLAY        CLOUDY    63  59  87 NW10      29.82R
6HR MIN TEMP:  62; 6HR MAX TEMP:  64;

TOLEDO EXPRESS CLOUDY    63  58  83 NW13G20   29.83R
6HR MIN TEMP:  60; 6HR MAX TEMP:  63;

TOLEDO METCALF CLOUDY    65  57  75 N15       29.83R
6HR MIN TEMP:  61; 6HR MAX TEMP:  66;

LIMA           CLOUDY    63  59  87 NW12      29.86R
6HR MIN TEMP:  61; 6HR MAX TEMP:  63;


$$
&&



USA.gov is the U.S. government's official web portal to all federal, state and local government web resources and services.